Regional Weather Roundup
Issued by NWS San Diego, CA

Home | Current Version | Previous Version | Text Only | Print | Product List | Glossary On
Versions: 1 2 3 4 5 6 7 8 9 10 11 12 13 14 15 16 17 18 19 20 21 22 23 24 25 26 27
000
ASUS46 KSGX 210611
RWRSGX

SAN DIEGO HOURLY WEATHER ROUNDUP
NATIONAL WEATHER SERVICE SAN DIEGO CA
1100 PM PDT FRI APR 20 2018

NOTE: "FAIR" INDICATES FEW OR NO CLOUDS BELOW 12,000 FEET WITH NO
SIGNIFICANT WEATHER AND/OR OBSTRUCTIONS TO VISIBILITY.

CAZ042-043-060-061-PZZ750-775-210700-

GREATER SAN DIEGO AREA

CITY           SKY/WX    TMP DP  RH WIND       PRES   REMARKS
SAN DIEGO AP   PTCLDY    60  53  77 NW3       30.13S
NATIONAL CITY    N/A     60  55  83 CALM      30.12F
CHULA VISTA      N/A     58  55  90 CALM      30.04R
IMPERIAL BEACH CLEAR     53  50  89 CALM      30.12F
BROWN FIELD    CLEAR     55  53  93 CALM      30.11F
MIRAMAR MCAS   CLEAR     55  50  83 CALM      30.11S
MONTGOMERY FLD CLEAR     58  52  80 S3        30.12R
GILLESPIE FLD  FAIR      59  48  67 CALM      30.11R

$$

NORTH SAN DIEGO COUNTY

CITY           SKY/WX    TMP DP  RH WIND       PRES   REMARKS
CAMP PENDLETON CLEAR     50  49  96 NW3       30.10F
OCEANSIDE AP   CLEAR     51  49  92 CALM      30.10S
OCEANSIDE HBR    N/A     56  54  91 CALM      30.12F
VISTA            N/A     53  48  83 CALM      30.08S
CARLSBAD       CLEAR     58  54  86 CALM      30.10S
DEL MAR          N/A     56  54  91 CALM      30.13S
LA JOLLA SCRIP   N/A     57  55  93 CALM      30.11S
FALLBROOK        N/A     55  53  95 CALM      30.11S
ESCONDIDO        N/A     58  49  72 CALM      30.11R
SAN MARCOS       N/A     55  48  78 CALM      30.14S
POWAY            N/A     54  46  75 CALM      30.11S

$$

EAST SAN DIEGO COUNTY

CITY           SKY/WX    TMP DP  RH WIND       PRES   REMARKS
RAMONA         CLEAR     51  45  79 CALM      30.10F
SANTEE LAKES     N/A     55  48  76 CALM      30.11R
LA MESA          N/A     56  50  82 CALM      30.06R
JAMUL            N/A     53  49  86 CALM      30.12S
CAMPO            N/A     47  40  76 NE3       30.10R

$$

ORANGE COUNTY AND THE LOS ANGELES BASIN

CITY           SKY/WX    TMP DP  RH WIND       PRES   REMARKS
JOHN WAYNE AP  CLEAR     59  52  77 NE3       30.10S
LAGUNA BEACH     N/A     58  48  68 CALM      30.05S
LAKE FOREST FR   N/A     56  39  52 N2        29.99F
HUNTINGTON BCH   N/A     55  53  92 CALM      30.11S
LOS ALAMITOS   FAIR      56  51  85 CALM      30.10S
FULLERTON      CLEAR     60  52  74 CALM      30.10R
LONG BEACH     CLEAR     60  49  66 N5        30.10S
L.A. AP        CLEAR     57  51  80 NE5       30.10F
L.A. DOWNTOWN  CLEAR     59  51  75 CALM      30.10S

$$

THE INLAND EMPIRE

CITY           SKY/WX    TMP DP  RH WIND       PRES   REMARKS
CORONA         CLEAR     49  41  74 CALM      30.12R
CHINO          CLEAR     58  45  62 CALM      30.12S
ONTARIO        CLEAR     61  44  53 SW3       30.11S
SAN BERNARDINO FAIR      61  44  55 S5        30.12S
RIVERSIDE AP   CLEAR     60  43  53 S3        30.12R
MORENO VALLEY    N/A     57  46  66 SE1       28.22R
MARCH ARB      CLEAR     52  37  56 CALM      30.12R
HORSETHIEF CYN   N/A     56  36  48 CALM      30.13R
PERRIS           N/A     59  46  60 CALM      30.06S
HEMET EAST       N/A     56  40  55 CALM      30.09R
FRENCH VALLEY  FAIR      54  45  71 CALM      30.13S
TEMECULA         N/A     57  49  77 CALM      30.17F

$$

SAN BERNARDINO AND RIVERSIDE COUNTY MOUNTAINS

CITY           SKY/WX    TMP DP  RH WIND       PRES   REMARKS
BIG BEAR AP    CLEAR     34  14  44 CALM      30.27R

$$

SOUTHERN DESERT INCLUDING THE COACHELLA VALLEY

CITY           SKY/WX    TMP DP  RH WIND       PRES   REMARKS
PALM SPRINGS   CLEAR     76  36  23 NW6       30.02R
THOUSAND PALMS   N/A     74  40  30 NW13      29.98R
PALM DESERT      N/A     72  43  35 CALM        N/A
THERMAL        CLEAR     76  39  26 NW9       29.96S
BLYTHE         CLEAR     70  31  23 SW5       29.98S
IMPERIAL AP    CLEAR     68  40  35 W6        29.98R
EL CENTRO NAS  CLEAR     68  39  34 W6        30.00R
YUMA AZ        CLEAR     65  37  35 S3        30.01R
MEXICALI       CLEAR     64  37  36 SE5       30.00R

$$

UPPER DESERT

CITY           SKY/WX    TMP DP  RH WIND       PRES   REMARKS
VICTORVILLE AP CLEAR     57  28  33 S3        30.15S
HESPERIA         N/A     54  41  60 CALM      30.15R
APPLE VALLEY     N/A     52  39  61 CALM      30.14R
PALMDALE       CLEAR     57  35  43 SE5       30.15R
LANCASTER      CLEAR     58  28  32 CALM      30.14R
EDWARDS AFB    CLEAR     57  31  37 SW10      30.10S
DAGGETT        CLEAR     68  31  25 SW14      30.09R
29 PALMS N     CLEAR     65  16  15 NW10      30.12R
NEEDLES        CLEAR     77  25  14 SW7       29.99R

$$

REGIONAL REPORTS

CITY           SKY/WX    TMP DP  RH WIND       PRES   REMARKS
SANTA BARBARA  CLEAR     54  48  80 NE3       30.07R
SANDBERG       CLEAR     51  25  36 N15       30.21S
LAS VEGAS NV   CLEAR     69  33  26 N8        30.03R
PHOENIX AZ     PTCLDY    70  29  21 E3        30.00S
TIJUANA        PTCLDY    57  54  88 CALM      30.13F
ENSENADA NW      N/A     58  32  37 CALM      30.04F

$$

OFFSHORE ISLANDS

CITY           SKY/WX    TMP DP  RH WIND       PRES   REMARKS
CATALINA ARPT  CLEAR     61  39  44 NW6       30.12S

$$

MARINE AND OFFSHORE BUOY REPORTS

STATION/POSITION SKY/WX   TEMP    WIND        PRES    VSBY  SWELL
                          AIR SEA DIR/SP/G                  HT/PER/DIR
                          (F)     (DEG/KT/KT) (MB)    (MI)  (FT/S/D)
TANNER BANKS               57 57              1019.9R
S CLEMENTE BASIN           58 62  290/  8/ 10 1019.9R         5/280/ 7
SAN NICOLAS IS.               56                N/A           3/310/11
SO. S. ROSA ISLA           54 55  310/ 21/ 25 1018.5R         5/290/ 9
W. S. BARBARA CH              51  320/ 23/ 31 1018.7R         3/290/11
M. S. BARBARA CH           56 55   10/  4/  6 1019.1
S. MONICA BASIN                   140/  6/ 10 1018.9R         5/270/ 5
S PEDRO CHANNEL               56                N/A           2/250/13
CMP PENDLETON NS              58                N/A           2/220/17
OCEANSIDE OFFSHR              60                N/A           2/200/17
TORREY PINES OTR              59                N/A           2/250/13
SAN DIEGO BAY                 62              1019.4F
POINT LOMA SOUTH              60                N/A           2/180/18

$$





USA.gov is the U.S. government's official web portal to all federal, state and local government web resources and services.